This is the latest recevied weather packets stored in our database for station/object ZS2JO. If no packets are shown the sender has not sent any weather packets the latest 1 day(s).
| Time | Temp. | Humidity | Pressure | Rain* | Wind** | Luminosity | Snow |
|---|---|---|---|---|---|---|---|
| 1778078434 | 13.33° C | 99% | 1004 hPa | 0 mm | - | 26 W/m² | - |
| 1778077830 | 13.33° C | 99% | 1003.3 hPa | 0.51 mm | - | 28 W/m² | - |
| 1778077527 | 13.33° C | 99% | 1003.3 hPa | 1.27 mm | - | 26 W/m² | - |
| 1778076923 | 13.33° C | 99% | 1003.3 hPa | 5.33 mm | - | 30 W/m² | - |
| 1778076621 | 13.89° C | 99% | 1003.6 hPa | 10.16 mm | - | 32 W/m² | - |
| 1778076318 | 13.89° C | 99% | 1003.9 hPa | 21.59 mm | - | 29 W/m² | - |
| 1778074498 | 15° C | 99% | 1004.8 hPa | 7.87 mm | - | 66 W/m² | - |
| 1778072377 | 15° C | 99% | 1006.2 hPa | 0 mm | - | 96 W/m² | - |
| 1778071773 | 15° C | 98% | 1006.6 hPa | 0 mm | - | 158 W/m² | - |
| 1778071470 | 15.56° C | 97% | 1006.9 hPa | 0 mm | - | 56 W/m² | - |
| 1778071168 | 15.56° C | 98% | 1006.7 hPa | 0 mm | - | 123 W/m² | - |
| 1778070866 | 15.56° C | 98% | 1006.6 hPa | 0 mm | - | 235 W/m² | - |
| 1778070563 | 15° C | 99% | 1006.7 hPa | 0 mm | - | 152 W/m² | - |
| 1778069655 | 15° C | 99% | 1007.1 hPa | 1.78 mm | - | 146 W/m² | - |
| 1778069352 | 15° C | 98% | 1007.3 hPa | 2.29 mm | - | 111 W/m² | - |
| 1778067539 | 15.56° C | 92% | 1007.7 hPa | 0 mm | - | 120 W/m² | - |
| 1778065722 | 16.67° C | 90% | 1007.5 hPa | 0 mm | - | 225 W/m² | - |
| 1778065419 | 17.22° C | 89% | 1007.5 hPa | 0 mm | - | 517 W/m² | - |
| 1778065116 | 16.67° C | 89% | 1007.7 hPa | 0 mm | - | 931 W/m² | - |
| 1778064812 | 16.67° C | 89% | 1007.7 hPa | 0 mm | - | 429 W/m² | - |
| 1778064510 | 16.11° C | 90% | 1007.8 hPa | 0 mm | - | 423 W/m² | - |
| 1778064207 | 15.56° C | 90% | 1007.8 hPa | 0 mm | - | 272 W/m² | - |
| 1778063602 | 15.56° C | 88% | 1007.9 hPa | 0 mm | - | 231 W/m² | - |
| 1778062997 | 15.56° C | 89% | 1008.1 hPa | 0 mm | - | 242 W/m² | - |
| 1778062390 | 15.56° C | 91% | 1008.3 hPa | 0 mm | - | 475 W/m² | - |
* Rain latest hour (hover to see other rain measurements)
** Current wind speed in m/s (hover to see current wind gust speed)